STARLINK-31971, 59934

Orbit data source: Space-Track

STARLINK-31971, 59934 is a payload satellite owned by SpaceX/Seattle (US) in LEO that was launched on Sat, 01 Jun 2024 UTC via an FALCON 9 launch vehicle from the Air Force Eastern Test Range (AFETR). Payload-class satellites include a variety of spacecraft equipped with specific instruments for various scientific and technological missions. These include communications satellites like Starlink; space stations such as the ISS; scientific satellites like the Hubble; Earth observation satellites from companies like Planet Labs, Umbra, and HawkEye 360; GPS; miniature CubeSats for education and research; and military/defense satellites.

Loading next visibility...
Identifier
59934, 2024-106N
Orbit
LEO
Country
Flag of USUS
Related business
Manufacturer
SpaceX/Seattle
Mission
Operational spacecraft
Bus & Motor
STARLINK V2M, Unknown motor
Mass
730 kg wet, ~700 kg dry
Launch date (UTC)
2024-06-01 (1 year ago)
Launch vehicle
FALCON 9
Launch site
Air Force Eastern Test Range (AFETR)
Object type
Payload
Rocket body
Debris
Shape & HBR
Unknown
Radar Cross Section
Large (>1 m²)

Expand to show TLE details & history
Last TLE update: 12 hours ago

TLE from 12 hours ago
0 STARLINK-31971
1 59934U 24106N   25259.27533027 -.00000121  00000-0  51116-5 0  9999
2 59934  43.0021 234.3213 0001131 271.8280  88.2442 15.27596481 73763
Epoch: 2025-09-16T06:36Z
TLE epoch observation values (Epoch: 2025-09-16T06:36:28.535Z)
Latitude
-0.00002°
Longitude
139.73441°
Altitude
482.752 km
Speed
7.626 km/s
True Right ascension
15h 37m 17s
True Declination
0° 00' 00"
Sunlit
Object was in daylight at epoch
Visualization orbit readout
Latitude
Unknown
Longitude
Unknown
Altitude
Unknown
Speed
Unknown
Apparent Right ascension
Unknown
Apparent Declination
Unknown
Sunlit
N/A
Visualization observer readout
Local Sidereal Time
11:33:55
Azimuth
Unknown
Elevation
Unknown
Doppler factor
Unknown
Orbital elements
Apogee altitude
485.721 km
Perigee altitude
484.168 km
Semi-major axis
6,863.082 km
Eccentricity
0.00011
Inclination
43.0021°
RAAN
234.3213°
Arg. of periapsis
271.828°
True anomaly
88.25715°
Mean anomaly
88.2442°
Eccentric anomaly
88.25068°
Mean motion
3.81737 °/min
Orbital period
94.31 mins
BSTAR
0.0000051116
Loading maneuver chart data...
Computing Atmospheric mass density...
Loading historical data...
Loading historical data...
Loading historical data...
Loading historical data...
Loading historical data...
Loading historical data...
Loading historical data...

Documentation

Showing up to 5 results
|